Total_Precipitation_Accumulation
1.21 1.18 1.22 1.41 1.42 1.49 1.47 1.22 1.01 1.01 1.01 1.02 0.90 0.87 0.89 0.84 0.87 0.98 1.07 1.01 0.97 1.12 1.32 1.40 1.41 1.35 1.31 1.30 1.27 1.28 1.23 1.17 1.06 0.97 0.83 0.72 0.68 0.66 0.68 0.68 0.66 0.64 0.65
1.39 1.40 1.45 1.54 1.55 1.70 1.73 1.48 1.31 1.38 1.32 1.29 1.13 1.05 1.04 1.09 1.08 1.09 1.14 1.15 1.03 1.00 1.15 1.36 1.46 1.48 1.49 1.45 1.36 1.31 1.27 1.25 1.19 1.05 0.91 0.81 0.75 0.72 0.70 0.72 0.70 0.68 0.63
1.74 1.83 1.91 1.85 1.78 1.75 1.78 1.69 1.56 1.55 1.53 1.39 1.30 1.29 1.29 1.18 1.11 1.22 1.31 1.33 1.25 1.17 1.19 1.23 1.31 1.46 1.63 1.68 1.63 1.54 1.44 1.38 1.28 1.19 1.08 0.97 0.88 0.84 0.78 0.75 0.74 0.71 0.67
1.97 2.20 2.26 2.07 1.93 1.85 1.94 1.98 1.85 1.82 1.81 1.77 1.53 1.35 1.39 1.37 1.27 1.28 1.31 1.36 1.45 1.37 1.31 1.22 1.23 1.30 1.40 1.52 1.64 1.67 1.62 1.50 1.41 1.34 1.27 1.18 1.09 0.97 0.86 0.79 0.75 0.71 0.71
2.06 2.27 2.38 2.35 2.13 2.10 2.18 2.11 2.24 2.13 2.10 1.94 1.63 1.45 1.31 1.22 1.24 1.23 1.25 1.31 1.32 1.32 1.34 1.32 1.30 1.29 1.34 1.44 1.53 1.60 1.63 1.61 1.54 1.46 1.42 1.37 1.26 1.10 0.97 0.89 0.83 0.81 0.81
2.22 2.44 2.50 2.54 2.42 2.44 2.52 2.47 2.45 2.31 2.11 1.95 1.71 1.54 1.31 1.10 1.09 1.16 1.17 1.16 1.11 1.09 1.12 1.17 1.27 1.25 1.27 1.32 1.44 1.65 1.87 1.89 1.77 1.62 1.55 1.48 1.38 1.21 1.06 0.98 0.93 0.90 0.86
2.88 3.02 2.95 2.86 2.69 2.64 2.63 2.53 2.41 2.31 2.17 2.11 2.00 1.76 1.43 1.13 1.01 0.98 1.03 1.04 0.98 0.96 0.98 1.06 1.11 1.11 1.14 1.18 1.27 1.44 1.73 1.93 1.91 1.79 1.68 1.60 1.50 1.40 1.30 1.19 1.10 1.02 0.95
3.49 3.44 3.34 3.09 2.84 2.66 2.52 2.39 2.25 2.14 2.03 1.99 2.00 1.95 1.69 1.41 1.10 0.89 0.97 0.99 0.96 0.97 0.97 0.95 0.97 0.97 0.95 1.04 1.16 1.26 1.41 1.53 1.67 1.78 1.73 1.61 1.53 1.47 1.43 1.39 1.34 1.24 1.14
3.33 3.22 3.12 2.99 2.78 2.59 2.43 2.37 2.28 2.20 2.06 2.02 2.03 2.10 1.95 1.59 1.22 1.00 0.91 0.92 0.95 0.97 0.99 0.98 0.93 0.93 0.95 0.98 1.04 1.20 1.31 1.32 1.36 1.47 1.61 1.60 1.52 1.50 1.48 1.47 1.44 1.40 1.34
3.03 2.87 2.87 2.84 2.71 2.53 2.35 2.20 2.14 2.13 2.15 2.04 1.94 1.78 1.66 1.46 1.37 1.22 1.06 0.98 0.93 0.93 0.94 0.92 0.89 0.91 0.95 0.99 1.11 1.20 1.24 1.21 1.22 1.25 1.30 1.35 1.38 1.41 1.42 1.40 1.41 1.44 1.46
2.77 2.61 2.57 2.49 2.34 2.22 2.09 1.94 1.85 1.84 1.88 1.86 1.79 1.71 1.64 1.52 1.38 1.31 1.24 1.13 1.07 0.98 0.91 0.89 0.88 0.89 0.93 0.95 1.02 1.10 1.18 1.12 1.14 1.16 1.20 1.24 1.28 1.33 1.39 1.45 1.52 1.59 1.65
2.58 2.34 2.09 1.97 1.95 1.82 1.63 1.51 1.45 1.43 1.44 1.49 1.55 1.52 1.46 1.46 1.42 1.39 1.31 1.22 1.18 1.14 1.04 1.00 0.94 0.89 0.94 0.91 0.91 1.07 1.07 1.05 1.03 1.02 1.06 1.12 1.13 1.15 1.22 1.32 1.48 1.64 1.76
2.09 1.88 1.68 1.56 1.51 1.48 1.39 1.28 1.22 1.14 1.12 1.18 1.22 1.31 1.34 1.32 1.28 1.33 1.40 1.39 1.29 1.19 1.05 0.97 0.84 0.76 0.79 0.87 0.97 1.00 0.94 0.92 0.88 0.86 0.89 0.99 1.04 1.04 1.00 1.04 1.15 1.33 1.45
1.61 1.39 1.26 1.18 1.09 1.02 0.99 1.00 1.04 1.02 1.00 1.04 1.06 1.15 1.22 1.22 1.22 1.24 1.28 1.39 1.41 1.26 1.09 0.94 0.82 0.74 0.75 0.80 0.90 0.80 0.79 0.77 0.73 0.75 0.78 0.83 0.90 1.01 0.98 0.92 0.89 0.94 1.01
1.20 1.07 0.96 0.90 0.86 0.81 0.79 0.79 0.83 0.87 0.89 0.90 0.93 0.98 1.03 1.01 1.03 1.07 1.12 1.20 1.30 1.27 1.14 0.94 0.90 0.86 0.84 0.82 0.88 0.78 0.79 0.74 0.71 0.77 0.78 0.82 0.89 1.04 1.09 0.98 0.87 0.78 0.74
0.95 0.86 0.80 0.76 0.72 0.69 0.69 0.73 0.74 0.75 0.77 0.77 0.75 0.72 0.72 0.72 0.74 0.75 0.82 0.92 1.02 1.11 1.11 0.93 0.85 0.90 0.88 0.80 0.90 0.82 0.80 0.80 0.78 0.99 1.10 1.02 0.97 1.14 1.29 1.24 1.06 0.92 0.86
0.73 0.72 0.66 0.62 0.61 0.61 0.61 0.63 0.60 0.57 0.55 0.55 0.54 0.55 0.59 0.58 0.61 0.61 0.65 0.75 0.90 1.02 1.13 0.97 0.85 0.89 0.94 0.90 0.91 0.88 0.84 0.83 0.95 1.34 1.56 1.74 1.46 1.34 1.42 1.36 1.24 1.05 0.93
0.65 0.63 0.57 0.52 0.50 0.47 0.46 0.43 0.41 0.40 0.43 0.44 0.46 0.50 0.52 0.53 0.54 0.56 0.60 0.69 0.81 0.97 1.13 1.11 0.96 0.96 0.97 0.96 1.02 1.02 0.89 0.80 0.86 1.30 1.63 1.95 1.92 1.70 1.69 1.52 1.33 1.11 0.97
0.56 0.54 0.50 0.47 0.43 0.42 0.39 0.35 0.35 0.36 0.38 0.40 0.43 0.48 0.52 0.59 0.61 0.62 0.67 0.71 0.78 0.86 1.04 1.12 1.05 1.06 1.11 1.14 1.25 1.17 1.02 0.98 0.82 1.06 1.47 1.80 1.99 2.06 2.14 1.98 1.66 1.29 1.03
0.53 0.55 0.54 0.45 0.36 0.32 0.32 0.30 0.29 0.31 0.34 0.36 0.41 0.47 0.53 0.62 0.69 0.72 0.72 0.75 0.80 0.88 0.97 1.09 1.11 1.15 1.21 1.28 1.32 1.30 1.13 1.00 0.88 0.88 1.33 1.80 2.14 2.19 2.38 2.48 2.16 1.66 1.23
0.50 0.49 0.49 0.47 0.40 0.32 0.29 0.27 0.26 0.29 0.35 0.41 0.43 0.45 0.49 0.59 0.67 0.65 0.62 0.65 0.77 0.95 1.00 1.11 1.15 1.14 1.12 1.23 1.25 1.10 1.01 0.92 0.82 0.81 1.02 1.42 2.11 2.45 2.52 2.59 2.47 1.95 1.46
0.54 0.48 0.45 0.45 0.42 0.31 0.31 0.29 0.26 0.31 0.39 0.45 0.48 0.48 0.46 0.49 0.48 0.49 0.55 0.61 0.70 0.90 1.18 1.33 1.24 1.17 1.06 1.04 1.07 1.03 1.02 0.98 0.93 0.74 0.75 1.06 1.63 2.35 2.60 2.61 2.54 1.96 1.42
0.52 0.47 0.42 0.43 0.41 0.34 0.31 0.29 0.29 0.33 0.43 0.49 0.52 0.52 0.43 0.38 0.46 0.51 0.55 0.59 0.70 0.83 1.07 1.37 1.44 1.20 1.11 1.05 1.08 1.10 1.13 1.14 1.05 0.77 0.77 1.04 1.43 2.09 2.31 2.35 2.25 1.68 1.25
0.49 0.48 0.46 0.45 0.43 0.34 0.30 0.29 0.30 0.35 0.44 0.48 0.49 0.50 0.52 0.51 0.48 0.50 0.54 0.65 0.80 0.91 1.00 1.07 1.34 1.17 0.95 0.93 0.98 0.99 1.05 1.07 1.00 0.81 0.78 1.05 1.38 1.83 1.86 1.95 1.90 1.48 1.15
0.47 0.43 0.39 0.41 0.43 0.39 0.32 0.30 0.29 0.36 0.43 0.45 0.44 0.43 0.41 0.44 0.47 0.57 0.71 0.92 1.05 1.17 1.12 1.23 1.37 1.31 1.15 1.05 0.92 0.91 1.06 1.08 1.04 0.92 0.81 0.97 1.23 1.39 1.52 1.63 1.51 1.35 1.12
0.42 0.36 0.32 0.34 0.36 0.34 0.24 0.22 0.25 0.33 0.40 0.43 0.46 0.47 0.41 0.38 0.48 0.63 0.87 1.13 1.25 1.32 1.19 1.28 1.50 1.54 1.36 1.31 1.24 1.10 1.13 1.09 1.04 1.03 0.83 0.84 1.05 1.07 1.32 1.40 1.30 1.19 1.13